Skip Page Navigation
NASA JPL Caltech
NASA Logo - Jet Propulsion Laboratory + View the NASA Portal
+ Center for Near-Earth Object Studies
JPL Home Earth Solar System Stars & Galaxies Technology
JPL Solar System Dynamics
BODIES ORBITS EPHEMERIDES TOOLS PHYSICAL DATA DISCOVERY FAQ SITE MAP
JPL Small-Body Database Browser
Search: [ help ]  
134273 (2006 BR156)
Classification: Main-belt Asteroid          SPK-ID: 2134273
Ephemeris | Orbit Diagram | Orbital Elements | Mission Design | Physical Parameters | Discovery Circumstances | Close-Approach Data ]

[ show orbit diagram ]
Orbital Elements at Epoch 2459000.5 (2020-May-31.0) TDB
Reference: JPL 10 (heliocentric ecliptic J2000)
 Element Value Uncertainty (1-sigma)   Units 
e .2486312768019074 5.8984e-08  
a 2.607329768911016 1.9744e-08 au
q 1.959066039423048 1.631e-07 au
i 2.376741179198643 7.9465e-06 deg
node 20.02835472414781 0.00013053 deg
peri 79.00962388469071 0.00013218 deg
M 180.0177570128189 2.1145e-05 deg
tp 2459769.310897640299
(2022-Jul-08.81089764)
9.6745e-05 TDB
period 1537.773496745566
4.21
1.7467e-05
4.782e-08
d
yr
n .23410469796877 2.6591e-09 deg/d
Q 3.255593498398984 2.4653e-08 au
  Orbit Determination Parameters
   # obs. used (total)      294  
   data-arc span      6789 days (18.59 yr)  
   first obs. used      2000-10-01  
   last obs. used      2019-05-04  
   planetary ephem.      DE431  
   SB-pert. ephem.      SB431-N16  
   condition code      0  
   norm. resid. RMS      .58569  
   source      ORB  
   producer      Otto Matic  
   solution date      2019-May-30 07:11:08  

Additional Information
 Earth MOID = .977574 au 
 Jupiter MOID = 1.92993 au 
 T_jup = 3.366 
[ show covariance matrix ]

Ephemeris | Orbit Diagram | Orbital Elements | Mission Design | Physical Parameters | Discovery Circumstances | Close-Approach Data ]

Physical Parameter Table
Parameter Symbol Value Units Sigma Reference Notes
absolute magnitude H 16.7   n/a MPO469407  

134273 (2006 BR156)          Discovered 2006-Jan-25 by Spacewatch at Kitt Peak
Reference: 20060711/Numbers.arcLast Updated: 2006-07-17

[ show close-approach data ]
Alternate Designations
 2006 BR156 = 2004 RF121 
Ephemeris | Orbit Diagram | Orbital Elements | Mission Design | Physical Parameters | Discovery Circumstances | Close-Approach Data ]
ABOUT SSD CREDITS/AWARDS PRIVACY/COPYRIGHT GLOSSARY LINKS
FirstGov 2020-Oct-29 10:58 UT
(server date/time)  
NASA Home Page
Site Manager:   Ryan S. Park
Webmaster  Alan B. Chamberlin